Terminal Aerodrome Forecast
Issued by NWS Billings, MT

Home | Current Version | Previous Version | Graphics & Text | Print | Product List | Glossary On
Versions: 1 2 3 4 5 6 7 8 9 10 11 12 13 14 15 16 17 18 19 20 21 22 23 24 25 26 27 28 29 30 31 32 33 34
000
FTUS45 KBYZ 270955 AAA
TAFMLS
TAF AMD
KMLS 270955Z 2710/2806 VRB05KT P6SM VCFG SCT008 OVC020
      TEMPO 2711/2714 1SM BR BKN004 OVC012
     FM271700 VRB05KT P6SM SCT025 SCT150
     FM280500 14006KT P6SM VCFG SCT002=

USA.gov is the U.S. government's official web portal to all federal, state and local government web resources and services.